CFG6FE LEIB-EDDM

Flight info

Callsign CFG6FE
Flight time 1h 47m
Altitude 34000
Route KABRE DCT ELTAN DCT ISTER DCT NIVDA DCT OMEDA DCT RAPUR DCT TORTU DCT ERTEV DCT TAGIP DCT GUNGO DCT IVKAL T102 NINUR T101 BETOS BETOS1B
Aircraft A320/M-SDE2FGHIJ1RWXY/LB1

Departure

Time 2026-05-05 13:08
Airport Ibiza Airport (LEIB)

Arrival

Time 2026-05-05 14:56
Airport Munich Airport (EDDM)
Time Latitude Longitude Altitude Speed Heading
2026-05-05 12:31 38.87548 1.37210 10 ft 0 kts 332°
2026-05-05 13:03 38.87556 1.37204 8 ft 4 kts 332°
2026-05-05 13:03 38.87597 1.37201 8 ft 9 kts 30°
2026-05-05 13:03 38.87635 1.37280 10 ft 11 kts 62°
2026-05-05 13:04 38.87668 1.37358 9 ft 9 kts 62°
2026-05-05 13:04 38.87695 1.37425 9 ft 8 kts 68°
2026-05-05 13:04 38.87685 1.37483 8 ft 6 kts 128°
2026-05-05 13:04 38.87651 1.37510 8 ft 7 kts 152°
2026-05-05 13:05 38.87596 1.37550 9 ft 10 kts 141°
2026-05-05 13:05 38.87607 1.37643 10 ft 12 kts 60°
2026-05-05 13:05 38.87656 1.37758 9 ft 18 kts 61°
2026-05-05 13:05 38.87721 1.37914 10 ft 19 kts 62°
2026-05-05 13:06 38.87780 1.38058 11 ft 17 kts 62°
2026-05-05 13:06 38.87844 1.38212 9 ft 20 kts 61°
2026-05-05 13:06 38.87905 1.38358 9 ft 18 kts 62°
2026-05-05 13:06 38.87959 1.38489 9 ft 16 kts 62°
2026-05-05 13:07 38.87998 1.38610 9 ft 13 kts 94°
2026-05-05 13:07 38.87942 1.38674 12 ft 9 kts 155°
2026-05-05 13:07 38.87893 1.38697 12 ft 6 kts 163°
2026-05-05 13:07 38.87832 1.38639 11 ft 24 kts 243°
2026-05-05 13:08 38.87650 1.38196 15 ft 90 kts 242°
2026-05-05 13:08 38.87261 1.37255 15 ft 145 kts 242°
2026-05-05 13:08 38.86771 1.36071 514 ft 150 kts 241°
2026-05-05 13:08 38.86154 1.34986 1170 ft 152 kts 231°
2026-05-05 13:09 38.85422 1.33938 1573 ft 167 kts 230°
2026-05-05 13:09 38.84596 1.32783 1815 ft 189 kts 230°
2026-05-05 13:09 38.83655 1.31462 2077 ft 210 kts 229°
2026-05-05 13:09 38.82655 1.30054 2617 ft 216 kts 230°
2026-05-05 13:10 38.81635 1.28607 3249 ft 220 kts 230°
2026-05-05 13:10 38.80384 1.27467 3955 ft 226 kts 200°
2026-05-05 13:10 38.78779 1.27321 4487 ft 244 kts 174°
2026-05-05 13:10 38.77075 1.27698 5072 ft 255 kts 173°
2026-05-05 13:11 38.75270 1.28130 5619 ft 269 kts 172°
2026-05-05 13:11 38.73415 1.28584 6423 ft 273 kts 173°
2026-05-05 13:11 38.71538 1.29040 7241 ft 276 kts 173°
2026-05-05 13:11 38.69645 1.29492 8052 ft 278 kts 173°
2026-05-05 13:12 38.67729 1.29940 8873 ft 281 kts 174°
2026-05-05 13:12 38.65800 1.30387 9702 ft 284 kts 174°
2026-05-05 13:12 38.63848 1.30837 10429 ft 286 kts 174°
2026-05-05 13:12 38.61881 1.31335 11155 ft 292 kts 168°
2026-05-05 13:13 38.60040 1.32525 11863 ft 305 kts 146°
2026-05-05 13:13 38.58591 1.34583 12380 ft 326 kts 125°
2026-05-05 13:13 38.57806 1.37432 12534 ft 357 kts 103°
2026-05-05 13:13 38.57405 1.40658 12733 ft 376 kts 101°
2026-05-05 13:14 38.57005 1.43999 13277 ft 384 kts 101°
2026-05-05 13:14 38.56598 1.47388 13889 ft 389 kts 102°
2026-05-05 13:14 38.56179 1.50818 14454 ft 393 kts 102°
2026-05-05 13:14 38.55768 1.54287 14999 ft 398 kts 98°
2026-05-05 13:15 38.55723 1.57854 15551 ft 406 kts 87°
2026-05-05 13:15 38.56218 1.61428 16089 ft 412 kts 75°
2026-05-05 13:15 38.57257 1.64857 16628 ft 417 kts 62°
2026-05-05 13:15 38.58688 1.68101 17162 ft 421 kts 59°
2026-05-05 13:16 38.60151 1.71363 17710 ft 425 kts 59°
2026-05-05 13:16 38.61625 1.74663 18244 ft 430 kts 59°
2026-05-05 13:16 38.63107 1.78001 18711 ft 434 kts 59°
2026-05-05 13:16 38.64601 1.81375 19197 ft 438 kts 59°
2026-05-05 13:17 38.66105 1.84780 19663 ft 442 kts 60°
2026-05-05 13:17 38.67621 1.88216 20129 ft 446 kts 60°
2026-05-05 13:17 38.69154 1.91689 20582 ft 450 kts 60°
2026-05-05 13:17 38.70701 1.95192 21044 ft 454 kts 60°
2026-05-05 13:18 38.72259 1.98725 21523 ft 458 kts 60°
2026-05-05 13:18 38.73830 2.02292 21968 ft 462 kts 60°
2026-05-05 13:18 38.75413 2.05885 22394 ft 465 kts 60°
2026-05-05 13:18 38.77008 2.09511 22835 ft 469 kts 60°
2026-05-05 13:19 38.78618 2.13168 23259 ft 473 kts 60°
2026-05-05 13:19 38.80235 2.16852 23636 ft 476 kts 61°
2026-05-05 13:19 38.81862 2.20565 23988 ft 479 kts 61°
2026-05-05 13:19 38.83498 2.24301 24341 ft 482 kts 61°
2026-05-05 13:20 38.85142 2.28055 24689 ft 484 kts 61°
2026-05-05 13:20 38.86788 2.31831 25021 ft 486 kts 61°
2026-05-05 13:20 38.88416 2.35579 25363 ft 489 kts 61°
2026-05-05 13:20 38.90075 2.39395 25689 ft 491 kts 61°
2026-05-05 13:21 38.91746 2.43236 26001 ft 493 kts 61°
2026-05-05 13:21 38.93422 2.47092 26331 ft 496 kts 62°
2026-05-05 13:21 38.95105 2.50964 26651 ft 498 kts 62°
2026-05-05 13:21 38.96797 2.54854 26968 ft 500 kts 62°
2026-05-05 13:22 38.98493 2.58760 27278 ft 502 kts 62°
2026-05-05 13:22 39.00190 2.62683 27579 ft 503 kts 62°
2026-05-05 13:22 39.01892 2.66631 27891 ft 505 kts 62°
2026-05-05 13:22 39.03598 2.70592 28131 ft 508 kts 62°
2026-05-05 13:23 39.05317 2.74579 28394 ft 510 kts 62°
2026-05-05 13:23 39.07039 2.78579 28658 ft 513 kts 62°
2026-05-05 13:23 39.08769 2.82604 28918 ft 515 kts 62°
2026-05-05 13:23 39.10502 2.86646 29197 ft 516 kts 62°
2026-05-05 13:24 39.12238 2.90697 29448 ft 518 kts 62°
2026-05-05 13:24 39.13982 2.94770 29694 ft 520 kts 62°
2026-05-05 13:24 39.15707 2.98872 29914 ft 521 kts 63°
2026-05-05 13:24 39.17387 3.03019 30126 ft 523 kts 64°
2026-05-05 13:25 39.19035 3.07205 30297 ft 524 kts 65°
2026-05-05 13:25 39.20666 3.11407 30529 ft 524 kts 65°
2026-05-05 13:25 39.22293 3.15614 30799 ft 524 kts 65°
2026-05-05 13:25 39.23923 3.19808 31069 ft 523 kts 65°
2026-05-05 13:26 39.25562 3.23992 31341 ft 522 kts 65°
2026-05-05 13:26 39.27206 3.28161 31611 ft 521 kts 65°
2026-05-05 13:26 39.28851 3.32325 31886 ft 520 kts 65°
2026-05-05 13:26 39.30494 3.36487 32202 ft 519 kts 65°
2026-05-05 13:27 39.32132 3.40641 32447 ft 519 kts 65°
2026-05-05 13:27 39.33766 3.44803 32695 ft 519 kts 65°
2026-05-05 13:27 39.35396 3.48966 32943 ft 519 kts 65°
2026-05-05 13:27 39.37022 3.53126 33209 ft 519 kts 65°
2026-05-05 13:28 39.38645 3.57283 33469 ft 518 kts 65°
2026-05-05 13:28 39.40264 3.61444 33730 ft 518 kts 65°
2026-05-05 13:28 39.41879 3.65600 33919 ft 518 kts 65°
2026-05-05 13:28 39.43494 3.69753 33954 ft 516 kts 65°
2026-05-05 13:29 39.46708 3.78039 33948 ft 514 kts 65°
2026-05-05 13:29 39.49905 3.86314 33956 ft 513 kts 65°
2026-05-05 13:30 39.53096 3.94585 33943 ft 515 kts 65°
2026-05-05 13:30 39.56300 4.02909 33953 ft 516 kts 65°
2026-05-05 13:31 39.59482 4.11183 33958 ft 517 kts 63°
2026-05-05 13:31 39.63653 4.18772 33962 ft 518 kts 45°
2026-05-05 13:32 39.69027 4.24960 33954 ft 517 kts 38°
2026-05-05 13:32 39.74504 4.31001 33983 ft 517 kts 39°
2026-05-05 13:33 39.79976 4.37072 33972 ft 517 kts 39°
2026-05-05 13:33 39.85447 4.43162 33967 ft 518 kts 39°
2026-05-05 13:34 39.90921 4.49254 33959 ft 518 kts 39°
2026-05-05 13:34 39.96398 4.55363 33979 ft 519 kts 39°
2026-05-05 13:35 40.01873 4.61500 33935 ft 519 kts 39°
2026-05-05 13:35 40.07209 4.67849 33936 ft 520 kts 48°
2026-05-05 13:36 40.11853 4.75100 33941 ft 521 kts 50°
2026-05-05 13:36 40.16485 4.82376 33969 ft 521 kts 50°
2026-05-05 13:37 40.21117 4.89665 33952 ft 521 kts 50°
2026-05-05 13:37 40.25750 4.96974 33925 ft 522 kts 50°
2026-05-05 13:38 40.30378 5.04289 33943 ft 522 kts 50°
2026-05-05 13:38 40.35000 5.11618 33952 ft 521 kts 50°
2026-05-05 13:39 40.39618 5.18958 33979 ft 522 kts 50°
2026-05-05 13:39 40.44226 5.26316 33959 ft 522 kts 50°
2026-05-05 13:40 40.48838 5.33684 33930 ft 522 kts 50°
2026-05-05 13:40 40.53449 5.41056 33942 ft 522 kts 50°
2026-05-05 13:41 40.58024 5.48387 33954 ft 522 kts 50°
2026-05-05 13:41 40.62618 5.55786 33956 ft 522 kts 50°
2026-05-05 13:42 40.67209 5.63196 33960 ft 522 kts 50°
2026-05-05 13:42 40.71791 5.70621 33963 ft 522 kts 50°
2026-05-05 13:43 40.76373 5.78050 33961 ft 522 kts 50°
2026-05-05 13:43 40.80953 5.85476 33977 ft 522 kts 50°
2026-05-05 13:44 40.85531 5.92925 33971 ft 522 kts 50°
2026-05-05 13:44 40.90098 6.00399 33972 ft 523 kts 50°
2026-05-05 13:45 40.94665 6.07866 33964 ft 522 kts 50°
2026-05-05 13:45 40.99227 6.15351 33975 ft 522 kts 50°
2026-05-05 13:46 41.03789 6.22844 33964 ft 522 kts 50°
2026-05-05 13:46 41.08346 6.30343 33967 ft 523 kts 50°
2026-05-05 13:47 41.12889 6.37862 33970 ft 523 kts 50°
2026-05-05 13:47 41.17433 6.45396 34001 ft 523 kts 50°
2026-05-05 13:48 41.21976 6.52931 33976 ft 523 kts 50°
2026-05-05 13:48 41.26486 6.60420 33975 ft 522 kts 50°
2026-05-05 13:49 41.31105 6.67850 33974 ft 521 kts 49°
2026-05-05 13:49 41.35763 6.75246 33979 ft 521 kts 49°
2026-05-05 13:50 41.40390 6.82670 33998 ft 521 kts 49°
2026-05-05 13:50 41.44220 6.88867 33958 ft 521 kts 49°
2026-05-05 13:51 41.48813 6.96342 33980 ft 521 kts 49°
2026-05-05 13:51 41.53393 7.03815 33984 ft 520 kts 49°
2026-05-05 13:52 41.57978 7.11299 33998 ft 520 kts 49°
2026-05-05 13:52 41.62565 7.18785 33983 ft 521 kts 49°
2026-05-05 13:53 41.67150 7.26280 33979 ft 521 kts 49°
2026-05-05 13:53 41.71730 7.33806 33976 ft 521 kts 49°
2026-05-05 13:54 41.76301 7.41347 33993 ft 522 kts 49°
2026-05-05 13:54 41.80873 7.48902 33980 ft 522 kts 49°
2026-05-05 13:55 41.85444 7.56479 33969 ft 523 kts 49°
2026-05-05 13:55 41.90016 7.64063 33961 ft 522 kts 49°
2026-05-05 13:56 41.94574 7.71647 33996 ft 522 kts 49°
2026-05-05 13:56 41.99416 7.78848 33989 ft 515 kts 33°
2026-05-05 13:57 42.02425 7.81367 33984 ft 506 kts 21°
2026-05-05 13:57 42.05572 7.83489 33972 ft 506 kts 20°
2026-05-05 13:57 42.11881 7.87715 33966 ft 507 kts 20°
2026-05-05 13:58 42.18202 7.91941 33976 ft 508 kts 20°
2026-05-05 13:58 42.24531 7.96195 33967 ft 509 kts 20°
2026-05-05 13:59 42.34020 8.02612 33982 ft 508 kts 20°
2026-05-05 14:00 42.43506 8.09052 33980 ft 508 kts 21°
2026-05-05 14:00 42.49811 8.13412 33978 ft 509 kts 21°
2026-05-05 14:01 42.56096 8.17862 33978 ft 510 kts 22°
2026-05-05 14:01 42.62379 8.22313 33980 ft 509 kts 21°
2026-05-05 14:02 42.68666 8.26754 33979 ft 509 kts 21°
2026-05-05 14:02 42.74956 8.31189 34008 ft 510 kts 21°
2026-05-05 14:03 42.81248 8.35651 33964 ft 510 kts 21°
2026-05-05 14:03 42.87530 8.40120 33976 ft 509 kts 21°
2026-05-05 14:04 42.93809 8.44592 34004 ft 509 kts 21°
2026-05-05 14:04 43.00039 8.49039 33991 ft 509 kts 21°
2026-05-05 14:05 43.06309 8.53526 33979 ft 509 kts 21°
2026-05-05 14:05 43.12577 8.58024 33995 ft 509 kts 21°
2026-05-05 14:06 43.18846 8.62526 33979 ft 509 kts 21°
2026-05-05 14:06 43.25104 8.67039 33981 ft 508 kts 21°
2026-05-05 14:07 43.31364 8.71560 33997 ft 508 kts 22°
2026-05-05 14:07 43.37615 8.76088 33989 ft 507 kts 21°
2026-05-05 14:08 43.43849 8.80621 33986 ft 507 kts 21°
2026-05-05 14:08 43.50057 8.85226 34002 ft 507 kts 23°
2026-05-05 14:09 43.56224 8.89954 33991 ft 507 kts 23°
2026-05-05 14:09 43.62375 8.94701 33984 ft 507 kts 23°
2026-05-05 14:10 43.68561 8.99362 33992 ft 505 kts 22°
2026-05-05 14:10 43.74797 9.03819 33989 ft 504 kts 21°
2026-05-05 14:11 43.81028 9.08247 33990 ft 503 kts 22°
2026-05-05 14:11 43.87239 9.12730 33997 ft 503 kts 22°
2026-05-05 14:12 43.93376 9.17224 33992 ft 502 kts 23°
2026-05-05 14:12 43.99539 9.21748 33989 ft 501 kts 23°
2026-05-05 14:13 44.05702 9.26261 34014 ft 500 kts 23°
2026-05-05 14:13 44.11856 9.30771 34002 ft 500 kts 23°
2026-05-05 14:14 44.18004 9.35288 33987 ft 499 kts 23°
2026-05-05 14:14 44.24146 9.39810 33995 ft 499 kts 24°
2026-05-05 14:15 44.30282 9.44340 33994 ft 499 kts 24°
2026-05-05 14:15 44.36404 9.48879 33972 ft 497 kts 24°
2026-05-05 14:16 44.42505 9.53401 33984 ft 496 kts 24°
2026-05-05 14:16 44.48588 9.57936 33975 ft 495 kts 24°
2026-05-05 14:17 44.54661 9.62483 33978 ft 495 kts 24°
2026-05-05 14:17 44.60733 9.67023 33990 ft 494 kts 25°
2026-05-05 14:18 44.66798 9.71560 33992 ft 493 kts 25°
2026-05-05 14:18 44.72849 9.76090 33990 ft 493 kts 25°
2026-05-05 14:19 44.78887 9.80639 34001 ft 492 kts 25°
2026-05-05 14:19 44.84917 9.85200 33995 ft 492 kts 25°
2026-05-05 14:20 44.90939 9.89757 33989 ft 491 kts 25°
2026-05-05 14:20 44.96957 9.94324 34003 ft 491 kts 26°
2026-05-05 14:21 45.02971 9.98900 33989 ft 491 kts 25°
2026-05-05 14:21 45.08977 10.03473 33979 ft 490 kts 25°
2026-05-05 14:22 45.14979 10.08057 33987 ft 490 kts 26°
2026-05-05 14:22 45.20966 10.12644 33992 ft 489 kts 26°
2026-05-05 14:23 45.26938 10.17232 33997 ft 488 kts 26°
2026-05-05 14:23 45.32906 10.21835 34008 ft 488 kts 26°
2026-05-05 14:24 45.38866 10.26431 33997 ft 487 kts 26°
2026-05-05 14:24 45.44831 10.31034 33991 ft 487 kts 26°
2026-05-05 14:25 45.50749 10.35609 34018 ft 487 kts 26°
2026-05-05 14:25 45.56705 10.40244 34013 ft 487 kts 26°
2026-05-05 14:26 45.62747 10.44563 34005 ft 483 kts 15°
2026-05-05 14:26 45.64896 10.45613 33999 ft 482 kts 15°
2026-05-05 14:27 45.81871 10.53871 33998 ft 483 kts 15°
2026-05-05 14:28 45.88227 10.56977 34009 ft 482 kts 15°
2026-05-05 14:28 45.94576 10.60084 34000 ft 482 kts 15°
2026-05-05 14:29 46.00925 10.63219 34004 ft 482 kts 16°
2026-05-05 14:29 46.07264 10.66415 34000 ft 482 kts 16°
2026-05-05 14:30 46.13588 10.69629 34008 ft 482 kts 16°
2026-05-05 14:30 46.19917 10.72836 34018 ft 482 kts 16°
2026-05-05 14:31 46.26239 10.76040 34025 ft 481 kts 16°
2026-05-05 14:31 46.32566 10.79251 34042 ft 482 kts 17°
2026-05-05 14:32 46.38891 10.82462 34031 ft 481 kts 17°
2026-05-05 14:32 46.45205 10.85680 34001 ft 481 kts 17°
2026-05-05 14:33 46.51519 10.88950 33992 ft 482 kts 17°
2026-05-05 14:33 46.57791 10.92261 33634 ft 484 kts 17°
2026-05-05 14:34 46.60995 10.93956 33224 ft 484 kts 17°
2026-05-05 14:34 46.64117 10.95606 32819 ft 484 kts 17°
2026-05-05 14:34 46.67288 10.97282 32443 ft 485 kts 17°
2026-05-05 14:34 46.69433 10.98416 32174 ft 486 kts 17°
2026-05-05 14:35 46.73647 11.00618 31657 ft 485 kts 14°
2026-05-05 14:35 46.76910 11.01691 31282 ft 479 kts
2026-05-05 14:35 46.80173 11.02609 30902 ft 476 kts
2026-05-05 14:35 46.83419 11.03518 30611 ft 474 kts
2026-05-05 14:36 46.86656 11.04419 30359 ft 472 kts
2026-05-05 14:36 46.88834 11.05023 30196 ft 471 kts
2026-05-05 14:36 46.92047 11.05914 29968 ft 469 kts
2026-05-05 14:36 46.95197 11.06792 29918 ft 466 kts
2026-05-05 14:37 47.01569 11.08580 29906 ft 466 kts
2026-05-05 14:37 47.07940 11.10371 29907 ft 467 kts
2026-05-05 14:38 47.11133 11.11273 29577 ft 467 kts
2026-05-05 14:38 47.14323 11.12176 28872 ft 465 kts
2026-05-05 14:38 47.17483 11.13069 28258 ft 460 kts
2026-05-05 14:38 47.20612 11.13950 27620 ft 456 kts
2026-05-05 14:39 47.23722 11.14827 27005 ft 454 kts
2026-05-05 14:39 47.26814 11.15703 26380 ft 451 kts
2026-05-05 14:39 47.29887 11.16578 25778 ft 449 kts 10°
2026-05-05 14:39 47.32989 11.17464 25182 ft 447 kts 10°
2026-05-05 14:40 47.36034 11.18328 24582 ft 444 kts 10°
2026-05-05 14:40 47.39018 11.19172 24043 ft 442 kts 10°
2026-05-05 14:40 47.42032 11.20027 23499 ft 440 kts 10°
2026-05-05 14:40 47.45028 11.20878 22913 ft 437 kts 10°
2026-05-05 14:41 47.47999 11.21725 22397 ft 432 kts 10°
2026-05-05 14:41 47.50940 11.22564 21893 ft 429 kts 10°
2026-05-05 14:41 47.53856 11.23396 21385 ft 425 kts 10°
2026-05-05 14:41 47.56754 11.24225 20876 ft 423 kts 10°
2026-05-05 14:42 47.59633 11.25052 20358 ft 420 kts 10°
2026-05-05 14:42 47.62494 11.25874 19835 ft 418 kts 10°
2026-05-05 14:42 47.65342 11.26692 19303 ft 416 kts 10°
2026-05-05 14:42 47.68179 11.27508 18774 ft 414 kts 10°
2026-05-05 14:43 47.71005 11.28322 18230 ft 414 kts 10°
2026-05-05 14:43 47.73829 11.29138 17643 ft 412 kts 10°
2026-05-05 14:43 47.76624 11.29950 17123 ft 408 kts 10°
2026-05-05 14:43 47.79392 11.30756 16659 ft 403 kts 10°
2026-05-05 14:44 47.82112 11.31743 16148 ft 401 kts 20°
2026-05-05 14:44 47.84540 11.33702 15703 ft 397 kts 37°
2026-05-05 14:44 47.86514 11.36550 15218 ft 394 kts 49°
2026-05-05 14:44 47.88337 11.39581 14725 ft 391 kts 49°
2026-05-05 14:45 47.90135 11.42586 14285 ft 386 kts 49°
2026-05-05 14:45 47.91915 11.45566 13817 ft 383 kts 49°
2026-05-05 14:45 47.93684 11.48532 13373 ft 381 kts 49°
2026-05-05 14:45 47.95443 11.51482 12968 ft 380 kts 49°
2026-05-05 14:46 47.97186 11.54410 12498 ft 376 kts 49°
2026-05-05 14:46 47.98914 11.57313 11995 ft 373 kts 49°
2026-05-05 14:46 48.00629 11.60197 11485 ft 370 kts 49°
2026-05-05 14:46 48.02331 11.63062 10946 ft 367 kts 49°
2026-05-05 14:47 48.04016 11.65908 10445 ft 364 kts 49°
2026-05-05 14:47 48.05688 11.68734 9937 ft 361 kts 49°
2026-05-05 14:47 48.07341 11.71533 9499 ft 355 kts 49°
2026-05-05 14:47 48.08960 11.74269 9105 ft 348 kts 49°
2026-05-05 14:48 48.10547 11.76952 8713 ft 341 kts 49°
2026-05-05 14:48 48.12104 11.79584 8328 ft 335 kts 49°
2026-05-05 14:48 48.13633 11.82176 7928 ft 329 kts 49°
2026-05-05 14:48 48.15145 11.84746 7427 ft 328 kts 49°
2026-05-05 14:49 48.16639 11.87289 7235 ft 321 kts 49°
2026-05-05 14:49 48.18088 11.89755 7110 ft 311 kts 49°
2026-05-05 14:49 48.19492 11.92145 6983 ft 300 kts 49°
2026-05-05 14:49 48.20847 11.94450 6807 ft 291 kts 49°
2026-05-05 14:50 48.22174 11.96711 6560 ft 287 kts 49°
2026-05-05 14:50 48.23575 11.98817 6319 ft 284 kts 41°
2026-05-05 14:50 48.25054 12.00715 6114 ft 275 kts 40°
2026-05-05 14:50 48.26493 12.02530 5906 ft 266 kts 39°
2026-05-05 14:51 48.27899 12.04261 5712 ft 257 kts 33°
2026-05-05 14:51 48.29464 12.05453 5509 ft 249 kts 21°
2026-05-05 14:51 48.31071 12.06277 5309 ft 240 kts
2026-05-05 14:51 48.32709 12.06224 5113 ft 233 kts 351°
2026-05-05 14:52 48.34266 12.05740 4912 ft 225 kts 331°
2026-05-05 14:52 48.35420 12.04288 4710 ft 213 kts 303°
2026-05-05 14:52 48.35987 12.02329 4440 ft 201 kts 278°
2026-05-05 14:52 48.35976 12.00302 4185 ft 190 kts 263°
2026-05-05 14:53 48.35828 11.98344 3802 ft 187 kts 263°
2026-05-05 14:53 48.35685 11.96428 3552 ft 183 kts 263°
2026-05-05 14:53 48.35546 11.94574 3331 ft 174 kts 263°
2026-05-05 14:53 48.35414 11.92820 3113 ft 161 kts 262°
2026-05-05 14:54 48.35294 11.91225 2910 ft 147 kts 263°
2026-05-05 14:54 48.35182 11.89741 2722 ft 141 kts 263°
2026-05-05 14:54 48.35071 11.88275 2526 ft 140 kts 262°
2026-05-05 14:54 48.34960 11.86807 2345 ft 142 kts 263°
2026-05-05 14:55 48.34849 11.85341 2147 ft 142 kts 264°
2026-05-05 14:55 48.34737 11.83862 1972 ft 142 kts 264°
2026-05-05 14:55 48.34626 11.82403 1767 ft 139 kts 264°
2026-05-05 14:55 48.34515 11.80963 1579 ft 139 kts 264°
2026-05-05 14:56 48.34412 11.79559 1480 ft 124 kts 264°
2026-05-05 14:56 48.34332 11.78516 1480 ft 76 kts 263°
2026-05-05 14:56 48.34322 11.77978 1472 ft 36 kts 289°
2026-05-05 14:56 48.34406 11.77680 1484 ft 27 kts 293°
2026-05-05 14:57 48.34489 11.77461 1481 ft 21 kts 332°
2026-05-05 14:57 48.34613 11.77438 1482 ft 15 kts 27°
2026-05-05 14:57 48.34638 11.77568 1485 ft 12 kts 83°
2026-05-05 14:57 48.34647 11.77688 1479 ft 12 kts 82°
2026-05-05 14:58 48.34661 11.77840 1485 ft 14 kts 77°
2026-05-05 14:58 48.34736 11.77889 1485 ft 15 kts 355°
2026-05-05 14:58 48.34856 11.77856 1476 ft 18 kts 338°
2026-05-05 14:58 48.34982 11.77819 1485 ft 19 kts 353°
2026-05-05 14:59 48.35121 11.77795 1473 ft 21 kts 353°
2026-05-05 14:59 48.35251 11.77773 1482 ft 16 kts 354°
2026-05-05 14:59 48.35311 11.77874 1481 ft 14 kts 83°
2026-05-05 14:59 48.35322 11.78020 1485 ft 15 kts 84°
2026-05-05 15:00 48.35280 11.78142 1481 ft 15 kts 162°
2026-05-05 15:00 48.35207 11.78159 1481 ft 16 kts 173°
2026-05-05 15:00 48.35123 11.78248 1480 ft 13 kts 86°
2026-05-05 15:00 48.35131 11.78343 1479 ft 2 kts 83°